Location: Eckley Miners' Village
(40.9930°N, 75.8630°W)
Time: 01:24:15
(UTC-04:00)

Vanguard 1 Rocket - Pass Details

Date: 14 March 2026
Orbit: 654 x 4213 km, 34.3° (Epoch: 18 April)

Event Time Altitude Azimuth Distance (km) Brightness Sun altitude
Rises 14:57:29 0° 254° (WSW) 3,678 11.1 40.6°
Reaches altitude 10° 15:02:28 10° 219° (SW) 3,315 11.5 40.0°
Maximum altitude 15:04:35 11° 204° (SSW) 3,496 11.6 39.8°
Drops below altitude 10° 15:06:59 10° 189° (S) 3,892 11.6 39.5°
Sets 15:15:13 0° 161° (SSE) 5,926 11.9 38.5°
